CFG3EL EDDF-EBAW

Flight info

Callsign CFG3EL
Flight time 0h 47m
Altitude 22000
Route SOBRA2L/18 SOBRA Y180 RUDOT DCT LNO DCT ULTAV DCT ERPUD DCT
Aircraft A20N/M-SDE2E3FGHIRWXY/LB1

Departure

Time 2026-04-15 08:48
Airport Frankfurt Main Airport (EDDF)

Arrival

Time 2026-04-15 09:36
Airport Antwerp International Airport (Deurne) (EBAW)
Time Latitude Longitude Altitude Speed Heading
2026-04-15 08:29 50.04831 8.57625 358 ft 0 kts 203°
2026-04-15 08:37 50.04835 8.57628 358 ft 2 kts 201°
2026-04-15 08:37 50.04856 8.57642 383 ft 2 kts 204°
2026-04-15 08:37 50.04870 8.57652 362 ft 2 kts 204°
2026-04-15 08:38 50.04886 8.57662 364 ft 2 kts 186°
2026-04-15 08:38 50.04896 8.57657 365 ft 2 kts 130°
2026-04-15 08:38 50.04902 8.57642 366 ft 0 kts 116°
2026-04-15 08:41 50.04901 8.57645 360 ft 3 kts 115°
2026-04-15 08:41 50.04871 8.57755 365 ft 18 kts 112°
2026-04-15 08:41 50.04788 8.57914 356 ft 22 kts 158°
2026-04-15 08:42 50.04619 8.58012 349 ft 27 kts 160°
2026-04-15 08:42 50.04526 8.57948 344 ft 16 kts 248°
2026-04-15 08:42 50.04477 8.57745 350 ft 23 kts 249°
2026-04-15 08:42 50.04420 8.57502 345 ft 24 kts 249°
2026-04-15 08:43 50.04363 8.57264 354 ft 23 kts 250°
2026-04-15 08:43 50.04309 8.57037 358 ft 22 kts 249°
2026-04-15 08:43 50.04258 8.56823 354 ft 23 kts 249°
2026-04-15 08:43 50.04193 8.56559 357 ft 30 kts 250°
2026-04-15 08:44 50.04118 8.56241 354 ft 24 kts 250°
2026-04-15 08:44 50.04056 8.55979 353 ft 27 kts 250°
2026-04-15 08:44 50.03993 8.55716 362 ft 26 kts 250°
2026-04-15 08:44 50.03933 8.55467 367 ft 23 kts 250°
2026-04-15 08:45 50.03876 8.55224 368 ft 24 kts 249°
2026-04-15 08:45 50.03817 8.54977 366 ft 25 kts 250°
2026-04-15 08:45 50.03758 8.54732 369 ft 23 kts 249°
2026-04-15 08:45 50.03703 8.54501 373 ft 22 kts 249°
2026-04-15 08:46 50.03651 8.54284 372 ft 23 kts 250°
2026-04-15 08:46 50.03588 8.54022 373 ft 28 kts 250°
2026-04-15 08:46 50.03511 8.53701 375 ft 34 kts 249°
2026-04-15 08:46 50.03424 8.53336 372 ft 36 kts 249°
2026-04-15 08:47 50.03335 8.52964 373 ft 35 kts 249°
2026-04-15 08:47 50.03274 8.52710 376 ft 15 kts 251°
2026-04-15 08:47 50.03254 8.52602 376 ft 6 kts 209°
2026-04-15 08:47 50.03230 8.52595 375 ft 0 kts 178°
2026-04-15 08:48 50.03081 8.52597 370 ft 60 kts 179°
2026-04-15 08:48 50.02407 8.52603 370 ft 132 kts 179°
2026-04-15 08:48 50.01326 8.52601 622 ft 165 kts 178°
2026-04-15 08:48 50.00101 8.52606 1086 ft 186 kts 177°
2026-04-15 08:49 49.98755 8.52690 1663 ft 200 kts 175°
2026-04-15 08:49 49.97322 8.52830 2211 ft 214 kts 174°
2026-04-15 08:49 49.95714 8.53026 2738 ft 249 kts 173°
2026-04-15 08:49 49.94519 8.53192 3163 ft 269 kts 173°
2026-04-15 08:50 49.88648 8.53471 4003 ft 229 kts 177°
2026-04-15 08:50 49.87052 8.53239 4025 ft 232 kts 192°
2026-04-15 08:51 49.85466 8.52474 4316 ft 249 kts 197°
2026-04-15 08:51 49.83800 8.51542 5147 ft 263 kts 198°
2026-04-15 08:51 49.82074 8.50559 6301 ft 265 kts 199°
2026-04-15 08:51 49.80344 8.49571 7462 ft 266 kts 199°
2026-04-15 08:52 49.78612 8.48480 8515 ft 271 kts 207°
2026-04-15 08:52 49.77097 8.46691 9536 ft 277 kts 230°
2026-04-15 08:52 49.76152 8.44084 10517 ft 283 kts 253°
2026-04-15 08:52 49.75972 8.40949 11058 ft 307 kts 276°
2026-04-15 08:53 49.76422 8.37630 11697 ft 323 kts 284°
2026-04-15 08:53 49.77010 8.34224 12510 ft 332 kts 285°
2026-04-15 08:53 49.77611 8.30741 13287 ft 338 kts 284°
2026-04-15 08:53 49.78199 8.27241 14291 ft 341 kts 284°
2026-04-15 08:54 49.78790 8.23657 15199 ft 345 kts 284°
2026-04-15 08:54 49.79380 8.20024 16064 ft 351 kts 284°
2026-04-15 08:54 49.79977 8.16321 16918 ft 356 kts 284°
2026-04-15 08:54 49.80577 8.12569 17788 ft 361 kts 284°
2026-04-15 08:55 49.81186 8.08755 18619 ft 366 kts 285°
2026-04-15 08:55 49.81794 8.04929 19302 ft 371 kts 285°
2026-04-15 08:55 49.82414 8.01013 20027 ft 376 kts 285°
2026-04-15 08:55 49.83038 7.97055 20744 ft 380 kts 285°
2026-04-15 08:56 49.83668 7.93046 21454 ft 385 kts 285°
2026-04-15 08:56 49.84305 7.88989 22028 ft 388 kts 285°
2026-04-15 08:56 49.84935 7.84961 22252 ft 389 kts 285°
2026-04-15 08:56 49.85574 7.80866 22273 ft 391 kts 284°
2026-04-15 08:57 49.86214 7.76765 22271 ft 392 kts 285°
2026-04-15 08:57 49.86860 7.72659 22270 ft 392 kts 285°
2026-04-15 08:57 49.87505 7.68549 22270 ft 391 kts 284°
2026-04-15 08:57 49.88136 7.64493 22270 ft 391 kts 284°
2026-04-15 08:58 49.88774 7.60372 22265 ft 391 kts 284°
2026-04-15 08:58 49.90029 7.52217 22266 ft 391 kts 284°
2026-04-15 08:58 49.90658 7.48113 22264 ft 390 kts 284°
2026-04-15 08:59 49.91286 7.44005 22252 ft 391 kts 284°
2026-04-15 08:59 49.91912 7.39898 22252 ft 391 kts 284°
2026-04-15 08:59 49.92538 7.35792 22264 ft 391 kts 284°
2026-04-15 08:59 49.93162 7.31680 22265 ft 391 kts 284°
2026-04-15 09:00 49.93777 7.27622 22259 ft 390 kts 284°
2026-04-15 09:00 49.94399 7.23505 22264 ft 390 kts 284°
2026-04-15 09:00 49.95017 7.19404 22265 ft 390 kts 284°
2026-04-15 09:00 49.95425 7.16692 22264 ft 390 kts 284°
2026-04-15 09:01 49.96241 7.11246 22266 ft 390 kts 284°
2026-04-15 09:01 49.96855 7.07136 22264 ft 390 kts 284°
2026-04-15 09:01 49.97262 7.04410 22258 ft 390 kts 284°
2026-04-15 09:01 49.97875 7.00291 22254 ft 390 kts 284°
2026-04-15 09:02 49.98687 6.94845 22240 ft 390 kts 285°
2026-04-15 09:02 49.99238 6.92194 22237 ft 388 kts 293°
2026-04-15 09:02 50.00513 6.88500 22238 ft 387 kts 302°
2026-04-15 09:02 50.02014 6.85035 22238 ft 386 kts 306°
2026-04-15 09:03 50.03629 6.81678 22240 ft 386 kts 308°
2026-04-15 09:03 50.05293 6.78400 22237 ft 386 kts 309°
2026-04-15 09:03 50.06974 6.75152 22238 ft 385 kts 309°
2026-04-15 09:03 50.08658 6.71900 22238 ft 385 kts 309°
2026-04-15 09:04 50.10332 6.68643 22234 ft 385 kts 309°
2026-04-15 09:04 50.11978 6.65412 22234 ft 385 kts 308°
2026-04-15 09:04 50.13635 6.62134 22234 ft 385 kts 308°
2026-04-15 09:04 50.15292 6.58840 22231 ft 386 kts 308°
2026-04-15 09:05 50.16947 6.55536 22219 ft 386 kts 308°
2026-04-15 09:05 50.18598 6.52235 22217 ft 385 kts 308°
2026-04-15 09:05 50.20226 6.48974 22217 ft 385 kts 308°
2026-04-15 09:05 50.21875 6.45672 22218 ft 385 kts 308°
2026-04-15 09:06 50.23522 6.42367 22221 ft 385 kts 307°
2026-04-15 09:06 50.25168 6.39062 22223 ft 385 kts 307°
2026-04-15 09:06 50.26791 6.35797 22223 ft 386 kts 307°
2026-04-15 09:06 50.28444 6.32466 22221 ft 386 kts 307°
2026-04-15 09:07 50.30097 6.29135 22223 ft 386 kts 307°
2026-04-15 09:07 50.31741 6.25817 22224 ft 386 kts 307°
2026-04-15 09:07 50.33390 6.22485 22225 ft 386 kts 307°
2026-04-15 09:07 50.35026 6.19175 22222 ft 384 kts 307°
2026-04-15 09:08 50.36637 6.15911 22220 ft 384 kts 307°
2026-04-15 09:08 50.38272 6.12595 22222 ft 384 kts 307°
2026-04-15 09:08 50.39905 6.09281 22221 ft 383 kts 307°
2026-04-15 09:08 50.41541 6.05953 22222 ft 385 kts 307°
2026-04-15 09:09 50.43178 6.02621 22167 ft 383 kts 307°
2026-04-15 09:09 50.44793 5.99334 21910 ft 378 kts 307°
2026-04-15 09:09 50.46393 5.96071 21654 ft 376 kts 306°
2026-04-15 09:09 50.47975 5.92884 21403 ft 375 kts 307°
2026-04-15 09:10 50.49600 5.89690 21151 ft 374 kts 308°
2026-04-15 09:10 50.51227 5.86496 20908 ft 372 kts 308°
2026-04-15 09:10 50.52843 5.83311 20659 ft 371 kts 307°
2026-04-15 09:10 50.54449 5.80140 20411 ft 370 kts 307°
2026-04-15 09:11 50.56046 5.76978 20164 ft 368 kts 307°
2026-04-15 09:11 50.57637 5.73821 19916 ft 367 kts 307°
2026-04-15 09:11 50.59216 5.70684 19687 ft 365 kts 307°
2026-04-15 09:11 50.60787 5.67559 19451 ft 363 kts 307°
2026-04-15 09:12 50.62335 5.64474 19213 ft 362 kts 307°
2026-04-15 09:12 50.63897 5.61359 18995 ft 360 kts 307°
2026-04-15 09:12 50.65448 5.58261 18763 ft 360 kts 307°
2026-04-15 09:12 50.66983 5.55190 18530 ft 359 kts 307°
2026-04-15 09:13 50.68529 5.52095 18258 ft 358 kts 307°
2026-04-15 09:13 50.70066 5.49014 17999 ft 356 kts 307°
2026-04-15 09:13 50.71596 5.45943 17728 ft 355 kts 307°
2026-04-15 09:13 50.73101 5.42919 17471 ft 353 kts 307°
2026-04-15 09:14 50.74616 5.39872 17210 ft 351 kts 306°
2026-04-15 09:14 50.76124 5.36835 16955 ft 350 kts 306°
2026-04-15 09:14 50.77627 5.33806 16694 ft 349 kts 306°
2026-04-15 09:14 50.79105 5.30822 16441 ft 348 kts 306°
2026-04-15 09:15 50.80598 5.27805 16186 ft 347 kts 306°
2026-04-15 09:15 50.82082 5.24803 15932 ft 346 kts 306°
2026-04-15 09:15 50.83567 5.21795 15681 ft 345 kts 306°
2026-04-15 09:15 50.85041 5.18805 15434 ft 344 kts 306°
2026-04-15 09:16 50.86494 5.15857 15190 ft 343 kts 307°
2026-04-15 09:16 50.88112 5.13061 14940 ft 344 kts 316°
2026-04-15 09:16 50.89963 5.10662 14700 ft 344 kts 320°
2026-04-15 09:16 50.91868 5.08365 14467 ft 343 kts 321°
2026-04-15 09:17 50.93774 5.06088 14224 ft 342 kts 321°
2026-04-15 09:17 50.95671 5.03817 13975 ft 341 kts 321°
2026-04-15 09:17 50.97563 5.01544 13711 ft 340 kts 321°
2026-04-15 09:17 50.99424 4.99303 13447 ft 339 kts 320°
2026-04-15 09:18 51.01303 4.97035 13177 ft 338 kts 320°
2026-04-15 09:18 51.03158 4.94795 12877 ft 330 kts 320°
2026-04-15 09:18 51.04976 4.92595 12445 ft 328 kts 320°
2026-04-15 09:18 51.06794 4.90391 11970 ft 327 kts 320°
2026-04-15 09:19 51.08577 4.88225 11516 ft 325 kts 321°
2026-04-15 09:19 51.10363 4.86000 11054 ft 324 kts 316°
2026-04-15 09:19 51.11819 4.83308 10609 ft 319 kts 298°
2026-04-15 09:19 51.12693 4.80113 10301 ft 309 kts 287°
2026-04-15 09:20 51.13331 4.76947 10211 ft 293 kts 285°
2026-04-15 09:20 51.13915 4.73908 10024 ft 283 kts 285°
2026-04-15 09:20 51.14486 4.70919 9589 ft 281 kts 285°
2026-04-15 09:20 51.15053 4.67958 9241 ft 278 kts 284°
2026-04-15 09:21 51.15545 4.65003 8797 ft 277 kts 281°
2026-04-15 09:21 51.16037 4.62055 8253 ft 280 kts 282°
2026-04-15 09:21 51.16587 4.59086 7800 ft 280 kts 284°
2026-04-15 09:21 51.17179 4.56130 7361 ft 280 kts 286°
2026-04-15 09:22 51.17794 4.53180 6933 ft 278 kts 287°
2026-04-15 09:22 51.18415 4.50275 6653 ft 274 kts 285°
2026-04-15 09:22 51.19023 4.47449 6399 ft 273 kts 285°
2026-04-15 09:22 51.19641 4.44581 6138 ft 273 kts 284°
2026-04-15 09:23 51.19951 4.41642 5906 ft 266 kts 266°
2026-04-15 09:23 51.19830 4.38698 5675 ft 265 kts 261°
2026-04-15 09:23 51.19613 4.35808 5448 ft 265 kts 258°
2026-04-15 09:23 51.19285 4.32919 5157 ft 262 kts 256°
2026-04-15 09:24 51.18918 4.30109 4746 ft 261 kts 255°
2026-04-15 09:24 51.18539 4.27291 4364 ft 258 kts 253°
2026-04-15 09:24 51.18106 4.24527 4066 ft 255 kts 252°
2026-04-15 09:24 51.17661 4.21788 3984 ft 254 kts 252°
2026-04-15 09:25 51.17227 4.19060 3988 ft 255 kts 254°
2026-04-15 09:25 51.17218 4.16222 3982 ft 261 kts 280°
2026-04-15 09:25 51.17881 4.13539 3979 ft 265 kts 292°
2026-04-15 09:25 51.18715 4.10909 3976 ft 267 kts 295°
2026-04-15 09:26 51.19566 4.08278 3683 ft 267 kts 295°
2026-04-15 09:26 51.20720 4.05954 3252 ft 271 kts 320°
2026-04-15 09:26 51.22439 4.04780 2984 ft 270 kts 352°
2026-04-15 09:26 51.24295 4.05097 2968 ft 272 kts 21°
2026-04-15 09:27 51.25928 4.06645 2982 ft 275 kts 39°
2026-04-15 09:27 51.27154 4.08930 2978 ft 270 kts 65°
2026-04-15 09:27 51.27671 4.11640 2946 ft 243 kts 96°
2026-04-15 09:27 51.27170 4.13934 2952 ft 204 kts 138°
2026-04-15 09:28 51.25992 4.14833 2963 ft 186 kts 183°
2026-04-15 09:28 51.24784 4.14220 2973 ft 186 kts 219°
2026-04-15 09:28 51.24148 4.12412 2985 ft 193 kts 249°
2026-04-15 09:28 51.23609 4.10479 2987 ft 193 kts 234°
2026-04-15 09:29 51.22956 4.08597 2974 ft 197 kts 250°
2026-04-15 09:29 51.22995 4.06398 2970 ft 206 kts 285°
2026-04-15 09:29 51.23879 4.04560 2975 ft 216 kts 323°
2026-04-15 09:29 51.25305 4.03798 2964 ft 222 kts 359°
2026-04-15 09:30 51.26765 4.04425 2987 ft 212 kts 34°
2026-04-15 09:30 51.27638 4.06090 2972 ft 195 kts 74°
2026-04-15 09:30 51.27709 4.08167 2974 ft 186 kts 106°
2026-04-15 09:30 51.27417 4.10188 2974 ft 187 kts 110°
2026-04-15 09:31 51.27077 4.12194 2967 ft 187 kts 112°
2026-04-15 09:31 51.26710 4.14179 2965 ft 183 kts 112°
2026-04-15 09:31 51.26301 4.16053 2979 ft 175 kts 119°
2026-04-15 09:31 51.25799 4.17779 2976 ft 173 kts 121°
2026-04-15 09:32 51.25276 4.19498 2991 ft 172 kts 122°
2026-04-15 09:32 51.24749 4.21213 2976 ft 172 kts 122°
2026-04-15 09:32 51.24227 4.22935 2984 ft 174 kts 120°
2026-04-15 09:32 51.23888 4.24819 2988 ft 178 kts 107°
2026-04-15 09:33 51.23512 4.26657 2996 ft 176 kts 115°
2026-04-15 09:33 51.23211 4.28570 2995 ft 180 kts 101°
2026-04-15 09:33 51.23157 4.30543 2903 ft 180 kts 102°
2026-04-15 09:33 51.22781 4.32373 2673 ft 171 kts 123°
2026-04-15 09:34 51.22146 4.33983 2207 ft 172 kts 129°
2026-04-15 09:34 51.21462 4.35548 1778 ft 172 kts 128°
2026-04-15 09:34 51.20957 4.37206 1549 ft 160 kts 115°
2026-04-15 09:34 51.20624 4.38807 1317 ft 148 kts 113°
2026-04-15 09:35 51.20339 4.40372 950 ft 147 kts 114°
2026-04-15 09:35 51.20007 4.41905 582 ft 145 kts 115°
2026-04-15 09:35 51.19663 4.43384 368 ft 142 kts 111°
2026-04-15 09:35 51.19332 4.44857 163 ft 143 kts 113°
2026-04-15 09:36 51.18997 4.46317 48 ft 122 kts 109°
2026-04-15 09:36 51.18847 4.46985 44 ft 17 kts 110°
2026-04-15 09:36 51.18818 4.47099 45 ft 5 kts 129°
2026-04-15 09:36 51.18797 4.47112 45 ft 3 kts 172°
2026-04-15 09:37 51.18757 4.47106 43 ft 10 kts 184°
2026-04-15 09:37 51.18728 4.47112 42 ft 0 kts 169°
2026-04-15 09:37 51.18727 4.47112 42 ft 2 kts 169°
2026-04-15 09:37 51.18712 4.47142 42 ft 5 kts 78°
2026-04-15 09:38 51.18748 4.47227 44 ft 9 kts 44°
2026-04-15 09:38 51.18794 4.47227 43 ft 7 kts 308°
2026-04-15 09:38 51.18832 4.47058 44 ft 27 kts 289°
2026-04-15 09:38 51.18910 4.46704 47 ft 33 kts 289°
2026-04-15 09:39 51.18996 4.46326 48 ft 37 kts 289°
2026-04-15 09:39 51.19077 4.45961 46 ft 25 kts 290°
2026-04-15 09:39 51.19112 4.45715 45 ft 13 kts 237°
2026-04-15 09:39 51.19024 4.45540 42 ft 18 kts 230°
2026-04-15 09:40 51.18973 4.45439 42 ft 14 kts 231°
2026-04-15 09:40 51.18952 4.45401 42 ft 7 kts 218°
2026-04-15 09:40 51.18902 4.45417 39 ft 11 kts 151°
2026-04-15 09:40 51.18834 4.45451 42 ft 6 kts 207°
2026-04-15 09:41 51.18813 4.45365 42 ft 7 kts 244°
2026-04-15 09:41 51.18804 4.45355 42 ft 1 kts 194°
2026-04-15 09:41 51.18784 4.45372 42 ft 0 kts 150°